Vogel Cemetery, Texas, United States
Lat: 29.74N, Lon: 98.4W
Wx Zone: TXZ205
Local Info
Past Weather Observations for Today

NOTE: This archive is for the closest National Weather Service station to Vogel Cemetery. Information may differ from the station used for current weather conditions.

Click here for Long-term Archive

Time Weather Temperature Dewpoint Humidity Pressure Winds Precip Visibility
19:51
Clear
75°F / 24°C 59°F / 15°C 57% 30.12 in
(1020 mb)
SSE 4.6 mph
(SSE 7 kph)
- 10SM
18:51
Partly Cloudy
75°F / 24°C 57°F / 14°C 54% 30.09 in
(1019 mb)
SE 8.1 mph
(SE 13 kph)
- 10SM
17:51
Partly Cloudy
81°F / 27°C 57°F / 14°C 45% 30.09 in
(1019 mb)
SE 5.8 mph
(SE 9 kph)
- 10SM
16:51
Partly Cloudy
84°F / 29°C 57°F / 14°C 40% 30.09 in
(1019 mb)
SSE 4.6 mph
(SSE 7 kph)
- 10SM
15:51
Partly Cloudy
88°F / 31°C 57°F / 14°C 35% 30.09 in
(1019 mb)
SSE 8.1 mph
(SSE 13 kph)
- 10SM
14:51
Partly Cloudy
84°F / 29°C 57°F / 14°C 40% 30.09 in
(1019 mb)
N 3.5 mph
(N 6 kph)
- 10SM
13:51
Partly Cloudy
84°F / 29°C 57°F / 14°C 40% 30.12 in
(1020 mb)
SSW 4.6 mph
(SSW 7 kph)
- 10SM
12:51
Partly Cloudy
84°F / 29°C 57°F / 14°C 40% 30.15 in
(1021 mb)
Variable 3.5 mph
(Variable 6 kph)
- 10SM
11:51
Clear
82°F / 28°C 57°F / 14°C 42% 30.18 in
(1022 mb)
Variable 3.5 mph
(Variable 6 kph)
- 10SM
10:51
Clear
79°F / 26°C 59°F / 15°C 51% 30.18 in
(1022 mb)
Calm - 10SM
09:51
Clear
75°F / 24°C 61°F / 16°C 61% 30.21 in
(1023 mb)
S 4.6 mph
(S 7 kph)
- 10SM
08:51
Clear
72°F / 22°C 61°F / 16°C 69% 30.18 in
(1022 mb)
Calm - 10SM
07:51
Clear
66°F / 19°C 57°F / 14°C 73% 30.18 in
(1022 mb)
Calm - 10SM
06:51
Clear
63°F / 17°C 57°F / 14°C 83% 30.15 in
(1021 mb)
Calm - 10SM
05:51
Clear
63°F / 17°C 57°F / 14°C 83% 30.12 in
(1020 mb)
NW 3.5 mph
(NW 6 kph)
- 10SM
04:51
Clear
63°F / 17°C 57°F / 14°C 83% 30.12 in
(1020 mb)
Calm - 10SM
03:51
Clear
63°F / 17°C 57°F / 14°C 83% 30.12 in
(1020 mb)
NW 3.5 mph
(NW 6 kph)
- 10SM
02:51
Clear
64°F / 18°C 57°F / 14°C 78% 30.12 in
(1020 mb)
W 3.5 mph
(W 6 kph)
- 10SM
01:51
Clear
64°F / 18°C 57°F / 14°C 78% 30.12 in
(1020 mb)
NW 3.5 mph
(NW 6 kph)
- 10SM
00:51
Clear
66°F / 19°C 59°F / 15°C 78% 30.12 in
(1020 mb)
NW 3.5 mph
(NW 6 kph)
- 10SM
Time Weather Temperature Dewpoint Humidity Pressure Winds Precip Visibility


Weather for websites

WeatherForYou.com, LLC is not responsible for any damages or problems caused by this service. Current weather conditions are obtained from the closest station including government and personal stations which may have varying degrees of accuracy. Weather forecasts are derived from the NOAA NDFD. Like all things, this site belongs to Jesus Christ... He just trusts me to maintain it. If you have any questions or comments email webmaster@weatherforyou.com

Copyright © 2014, WeatherForYou.com LLC. All rights reserved.